Location: Westminster
(33.3626°N, 96.4619°W)
Time: 21:16:01
(UTC+00:00)

SL-27 R/B - Pass Details

Date: 03 December 2021
Orbit: 416 x 464 km, 74.7° (Epoch: 26 January)

Event Time Altitude Azimuth Distance (km) Brightness Sun altitude
Rises 12:29:44 0° 354° (N) 2,499 5.9 -9.2°
Reaches altitude 10° 12:31:59 10° 3° (N) 1,616 5.0 -8.8°
Maximum altitude 12:35:15 34° 70° (ENE) 774 4.1 -8.2°
Drops below altitude 10° 12:38:29 10° 138° (SE) 1,587 6.4 -7.5°
Sets 12:40:40 0° 147° (SSE) 2,448 7.1 -7.1°
